Weather History for Quincy, IL

Change the Weather History Date:

Wednesday, October 9, 2013

  Actual Average Record
Temperature  
Mean Temperature 60 °F 57 °F  
Max Temperature 74 °F 68 °F 89 °F (1938)
Min Temperature 45 °F 46 °F 27 °F (2000)
Degree Days  
Heating Degree Days 5 9  
Month to date heating degree days 35 70  
Since 1 July heating degree days 72 157  
Cooling Degree Days 0 1  
Month to date cooling degree days 42 10  
Year to date cooling degree days 1241 1086  
Growing Degree Days 10 (Base 50)    
Moisture  
Dew Point 44 °F    
Average Humidity 60    
Maximum Humidity 86    
Minimum Humidity 33    
Precipitation  
Precipitation 0.00 in 0.09 in 0.70 in (1941)
Month to date precipitation 0.36 0.91  
Year to date precipitation 30.26 29.96  
Sea Level Pressure  
Sea Level Pressure 30.13 in    
Wind  
Wind Speed 5 mph (SE)    
Max Wind Speed 12 mph    
Max Gust Speed 15 mph    
Visibility 10 miles    
Events      
T = Trace of Precipitation, MM = Missing Value Source: NWS Daily Summary

Daily Weather History Graph

Daily Weather History Graph

Search for Another Location

Airport:

Trip Planner

Search our weather history database for the weather conditions in past years. The results will help you decide how hot, cold, wet, or windy it might be!

Date:

Astronomy

Oct. 09, 2013 Rise Set
Actual Time 7:09 AM CDT 6:33 PM CDT
Civil Twilight 6:42 AM CDT 7:01 PM CDT
Nautical Twilight 6:10 AM CDT 7:32 PM CDT
Astronomical Twilight 5:39 AM CDT 8:03 PM CDT
Moon 12:04 PM CDT (10/9) 10:08 PM CDT (10/9)
Length of Visible Light 12h 18m
Length of Day
11h 24m
Waxing Crescent, 25% of the Moon is Illuminated
Oct 9
Waxing Crescent
Oct 11
First Quarter
Oct 18
Full
Oct 26
Last Quarter
Nov 3
New

Hourly Weather History & Observations

Time (CDT) Temp. Dew Point Humidity Pressure Visibility Wind Dir Wind Speed Gust Speed Precip Events Conditions
12:54 AM 57.0 °F 46.0 °F 67% 30.11 in 10.0 mi South 4.6 mph - N/A   Clear
1:54 AM 52.0 °F 45.0 °F 77% 30.13 in 10.0 mi Calm Calm - N/A   Clear
2:54 AM 53.1 °F 45.0 °F 74% 30.12 in 10.0 mi ESE 5.8 mph - N/A   Clear
3:54 AM 51.1 °F 44.1 °F 77% 30.13 in 10.0 mi SE 4.6 mph - N/A   Clear
4:54 AM 50.0 °F 44.1 °F 80% 30.14 in 10.0 mi SE 4.6 mph - N/A   Clear
5:54 AM 50.0 °F 44.1 °F 80% 30.15 in 10.0 mi ESE 4.6 mph - N/A   Clear
6:54 AM 46.9 °F 43.0 °F 86% 30.16 in 10.0 mi East 3.5 mph - N/A   Clear
7:54 AM 48.9 °F 44.1 °F 83% 30.17 in 10.0 mi ESE 3.5 mph - N/A   Clear
8:54 AM 55.9 °F 48.0 °F 75% 30.18 in 10.0 mi ESE 5.8 mph - N/A   Clear
9:54 AM 62.1 °F 46.9 °F 58% 30.18 in 10.0 mi SSE 6.9 mph - N/A   Clear
10:54 AM 66.0 °F 44.1 °F 45% 30.18 in 10.0 mi South 4.6 mph - N/A   Clear
11:54 AM 69.1 °F 44.1 °F 40% 30.17 in 10.0 mi South 4.6 mph - N/A   Clear
12:54 PM 70.0 °F 43.0 °F 38% 30.14 in 10.0 mi South 6.9 mph - N/A   Clear
1:54 PM 73.0 °F 42.1 °F 33% 30.12 in 10.0 mi South 8.1 mph - N/A   Clear
2:54 PM 73.0 °F 43.0 °F 34% 30.11 in 10.0 mi South 6.9 mph - N/A   Clear
3:54 PM 73.0 °F 44.1 °F 35% 30.10 in 10.0 mi SE 6.9 mph - N/A   Clear
4:54 PM 72.0 °F 43.0 °F 35% 30.10 in 10.0 mi SE 5.8 mph - N/A   Clear
5:54 PM 70.0 °F 43.0 °F 38% 30.09 in 10.0 mi SSE 3.5 mph - N/A   Clear
6:54 PM 64.9 °F 44.1 °F 47% 30.09 in 10.0 mi SE 3.5 mph - N/A   Clear
7:54 PM 60.1 °F 45.0 °F 57% 30.10 in 10.0 mi SSE 4.6 mph - N/A   Clear
8:54 PM 59.0 °F 44.1 °F 58% 30.10 in 10.0 mi SSE 3.5 mph - N/A   Clear
9:54 PM 57.0 °F 45.0 °F 64% 30.11 in 10.0 mi SSE 3.5 mph - N/A   Clear
10:54 PM 55.9 °F 45.0 °F 67% 30.11 in 10.0 mi SSE 3.5 mph - N/A   Clear
11:54 PM 55.9 °F 46.0 °F 69% 30.10 in 10.0 mi SE 5.8 mph - N/A   Clear